STARLINK-37125

Last updated on Sun Apr 12 2026 00:02:07 GMT+0000 (Coordinated Universal Time)

1 68276U 26055Q 26101.44296522 .00231691 00000+0 11435-2 0 9998 2 68276 53.1576 173.0266 0001794 32.9547 327.1588 15.80922869 4866
UTC large
Height (km)
Speed (km/s)
/
Latitude / Longitude
Inclination (degrees)
Orbital Period (minutes)
Azimuth
Elevation
Range (km)
Doppler Factor

Next 0 passes for location: London (51.5072 / 0.1276)

Sorry there are no passes over London.
STARLINK-37125